DW3277 Weather Reports


time (UTC)temp
C
wind
direction
speed
KPH
gust
KPH
rain 1hr
cm
rain 24hr
cm
rain mn
cm
humidity
%
barometer
mb
20260507070052 15 210 0.0 0.0 0.00 0.00 0.00 75 1010.4
20260507064606 16 210 0.0 0.0 0.00 0.00 0.00 74 1010.2
20260507063053 16 210 0.0 0.0 0.00 0.00 0.00 73 1010.1
20260507061549 16 210 0.0 0.0 0.00 0.00 0.00 72 1009.8
20260507060050 16 210 0.0 0.0 0.00 0.00 0.00 72 1009.8
20260507054555 16 210 0.0 0.0 0.00 0.00 0.00 71 1009.7
20260507053047 17 210 0.0 0.0 0.00 0.00 0.00 70 1009.7
20260507051547 17 210 0.0 0.0 0.00 0.00 0.00 68 1009.6
20260507050046 17 210 0.0 0.0 0.00 0.00 0.00 68 1009.6
20260507044546 18 210 0.0 0.0 0.00 0.00 0.00 66 1009.4
20260507043046 18 210 0.0 0.0 0.00 0.00 0.00 66 1009.5
20260507041554 18 210 0.0 0.0 0.00 0.00 0.00 64 1009.2
20260507040045 19 210 0.0 0.0 0.00 0.00 0.00 63 1009.2
20260507034548 19 210 0.0 0.0 0.00 0.00 0.00 61 1009.0
20260507033045 20 210 0.0 0.0 0.00 0.00 0.00 60 1008.8
20260507031543 21 210 0.0 0.0 0.00 0.00 0.00 58 1008.7
20260507030043 21 210 0.0 0.0 0.00 0.00 0.00 55 1008.6
20260507024543 22 210 0.0 0.0 0.00 0.00 0.00 52 1008.6
20260507023042 23 210 0.0 0.0 0.00 0.00 0.00 50 1008.6
20260507021545 23 210 0.0 0.0 0.00 0.00 0.00 48 1008.6
20260507020041 24 210 0.0 0.0 0.00 0.00 0.00 45 1008.6
20260507014553 25 210 0.0 0.0 0.00 0.00 0.00 41 1008.6
20260507013048 26 210 3.2 0.0 0.00 0.00 0.00 36 1008.4
20260507011541 26 210 6.4 0.0 0.00 0.00 0.00 35 1008.3
20260507010038 26 209 8.0 0.0 0.00 0.00 0.00 35 1008.2
20260507004539 27 209 9.7 0.0 0.00 0.00 0.00 34 1008.3
20260507003038 27 210 9.7 0.0 0.00 0.00 0.00 33 1008.2
20260507001549 27 213 8.0 0.0 0.00 0.00 0.00 33 1008.2
20260507000036 27 208 9.7 0.0 0.00 0.00 0.00 31 1008.1
20260506234535 27 202 11.3 0.0 0.00 0.00 0.00 29 1008.1
20260506233040 27 202 11.3 0.0 0.00 0.00 0.00 30 1008.2
20260506231537 28 207 9.7 0.0 0.00 0.00 0.00 31 1008.2
20260506230032 28 207 6.4 0.0 0.00 0.00 0.00 32 1008.2
20260506224531 28 204 6.4 0.0 0.00 0.00 0.00 33 1008.4
20260506223029 28 202 6.4 0.0 0.00 0.00 0.00 32 1008.6
20260506221527 28 202 8.0 0.0 0.00 0.00 0.00 33 1009.0
20260506220025 28 202 6.4 0.0 0.00 0.00 0.00 33 1009.2
20260506214522 27 202 4.8 0.0 0.00 0.00 0.00 33 1009.4
20260506213018 27 202 6.4 0.0 0.00 0.00 0.00 34 1009.6
20260506211517 27 202 3.2 0.0 0.00 0.00 0.00 32 1009.8
20260506210015 26 202 3.2 0.0 0.00 0.00 0.00 33 1009.9
20260506204512 26 202 4.8 0.0 0.00 0.00 0.00 33 1010.2
20260506203009 26 202 1.6 0.0 0.00 0.00 0.00 34 1010.4
20260506201508 26 202 3.2 0.0 0.00 0.00 0.00 34 1010.7
20260506200003 25 202 6.4 0.0 0.00 0.00 0.00 36 1010.6
20260506194617 25 202 1.6 0.0 0.00 0.00 0.00 35 1010.8
20260506193056 24 202 3.2 0.0 0.00 0.00 0.00 35 1011.1
20260506191552 23 202 3.2 0.0 0.00 0.00 0.00 33 1011.3
20260506190049 23 202 1.6 0.0 0.00 0.00 0.00 35 1011.5
20260506184551 22 202 1.6 0.0 0.00 0.00 0.00 36 1011.8
20260506183043 21 202 3.2 0.0 0.00 0.00 0.00 38 1012.1
20260506181543 21 202 1.6 0.0 0.00 0.00 0.00 38 1012.3
20260506180047 21 202 1.6 0.0 0.00 0.00 0.00 38 1012.4
20260506174536 20 202 1.6 0.0 0.00 0.00 0.00 39 1012.6
20260506173032 19 202 3.2 0.0 0.00 0.00 0.00 40 1012.6
20260506171544 18 202 0.0 0.0 0.00 0.00 0.00 41 1012.8
20260506170025 18 202 1.6 0.0 0.00 0.00 0.00 42 1013.1
20260506164522 17 202 0.0 0.0 0.00 0.00 0.00 43 1013.3
20260506163021 16 202 0.0 0.0 0.00 0.00 0.00 46 1013.6
20260506161520 16 202 0.0 0.0 0.00 0.00 0.00 51 1013.9
20260506160012 15 202 0.0 0.0 0.00 0.00 0.00 52 1014.1
20260506154505 13 202 0.0 0.0 0.00 0.00 0.00 57 1014.3
20260506153001 13 202 0.0 0.0 0.00 0.00 0.00 57 1014.5
20260506151558 12 202 0.0 0.0 0.00 0.00 0.00 60 1014.6
20260506150101 11 202 0.0 0.0 0.00 0.00 0.00 66 1014.7
20260506144554 10 202 0.0 0.0 0.00 0.00 0.00 70 1014.9
20260506143054 10 202 0.0 0.0 0.00 0.00 0.00 75 1014.9
20260506141553 8 202 0.0 0.0 0.00 0.00 0.00 80 1015.1
20260506140052 8 202 0.0 0.0 0.00 0.00 0.00 82 1015.2
20260506134615 8 202 0.0 0.0 0.00 0.00 0.00 83 1015.2
20260506133051 7 202 0.0 0.0 0.00 0.00 0.00 83 1015.0
20260506131605 7 202 0.0 0.0 0.00 0.00 0.00 83 1014.8
20260506130047 7 202 0.0 0.0 0.00 0.00 0.00 83 1014.6
20260506124545 7 202 0.0 0.0 0.00 0.00 0.00 82 1014.6
20260506123046 7 202 0.0 0.0 0.00 0.00 0.00 82 1014.4
20260506121542 8 202 0.0 0.0 0.00 0.00 0.00 82 1014.3
20260506120039 8 202 0.0 0.0 0.00 0.00 0.00 81 1014.1
20260506114544 8 202 0.0 0.0 0.00 0.00 0.00 81 1013.9
20260506113039 8 202 0.0 0.0 0.00 0.00 0.00 81 1013.8
20260506111534 8 202 0.0 0.0 0.00 0.00 0.00 80 1013.7
20260506110032 8 202 0.0 0.0 0.00 0.00 0.00 80 1013.6
20260506104530 9 202 0.0 0.0 0.00 0.00 0.00 79 1013.6
20260506103029 9 202 0.0 0.0 0.00 0.00 0.00 79 1013.4
20260506101527 9 202 0.0 0.0 0.00 0.00 0.00 78 1013.3
20260506100032 10 202 0.0 0.0 0.00 0.00 0.00 78 1013.2
20260506094524 10 202 0.0 0.0 0.00 0.00 0.00 78 1013.2
20260506093021 10 202 0.0 0.0 0.00 0.00 0.00 77 1013.1
20260506091520 10 202 0.0 0.0 0.00 0.00 0.00 77 1012.9
20260506090017 10 202 0.0 0.0 0.00 0.00 0.00 76 1012.9
20260506084516 10 202 0.0 0.0 0.00 0.00 0.00 76 1012.7
20260506083014 10 202 0.0 0.0 0.00 0.00 0.00 75 1012.6
20260506081520 11 202 0.0 0.0 0.00 0.00 0.00 75 1012.4
20260506073005 11 202 0.0 0.0 0.00 0.00 0.00 71 1012.0
20260506071507 11 202 0.0 0.0 0.00 0.00 0.00 71 1011.9